When you browse on this site, cookies collect data to enhance your experience and personalize the content and advertising you see.
Visit our Privacy Policy to learn more. By continuing to use the site, you agree to this use of cookies and data.
  • în România
  • Lista ţărilor
  • Pe 7 zile
  • Temperatura apei
  • Hartă satelitară
  • Meteo pe hartă
  • Widget-uri
  • user-avatar
    Intrare

    Meteo pe oră la Sokur

    Astăzi, 18 Iulie, Joi

    Timp Temperatura Precipitaţii Vânt Presiune Umiditate
    00:00 +18°C° 0 mm 2 m/s 744 mmHg 92%
    01:00 +17°C° 0 mm 2 m/s 744 mmHg 93%
    02:00 +17°C° 0 mm 2 m/s 744 mmHg 94%
    03:00 +16°C° 0 mm 2 m/s 744 mmHg 96%
    04:00 +17°C° 0 mm 3 m/s 744 mmHg 94%
    05:00 +17°C° 0 mm 3 m/s 744 mmHg 92%
    06:00 +18°C° 0 mm 4 m/s 745 mmHg 90%
    07:00 +19°C° 0 mm 4 m/s 745 mmHg 85%
    08:00 +21°C° 0 mm 4 m/s 745 mmHg 80%
    09:00 +22°C° 0 mm 5 m/s 745 mmHg 75%
    10:00 +23°C° 0 mm 4 m/s 745 mmHg 71%
    11:00 +25°C° 0 mm 4 m/s 746 mmHg 66%
    12:00 +26°C° 0 mm 4 m/s 746 mmHg 62%
    13:00 +27°C° 0 mm 4 m/s 746 mmHg 61%
    14:00 +27°C° 0 mm 4 m/s 746 mmHg 61%
    15:00 +27°C° 0 mm 4 m/s 746 mmHg 61%
    16:00 +26°C° 0 mm 3 m/s 746 mmHg 64%
    17:00 +26°C° 0 mm 3 m/s 746 mmHg 67%
    18:00 +26°C° 0 mm 2 m/s 747 mmHg 70%
    19:00 +24°C° 0 mm 2 m/s 747 mmHg 74%
    20:00 +21°C° 0 mm 2 m/s 747 mmHg 78%
    21:00 +21°C° 0 mm 1 m/s 747 mmHg 82%
    22:00 +20°C° 0 mm 1 m/s 747 mmHg 83%
    23:00 +20°C° 0 mm 1 m/s 747 mmHg 84%

    Mâine, 19 Iulie, Vineri

    Timp Temperatura Precipitaţii Vânt Presiune Umiditate
    00:00 +19°C° 0 mm 1 m/s 748 mmHg 84%
    01:00 +19°C° 0 mm 1 m/s 748 mmHg 83%
    02:00 +18°C° 0 mm 1 m/s 748 mmHg 81%
    03:00 +18°C° 0 mm 1 m/s 748 mmHg 80%
    04:00 +19°C° 0 mm 1 m/s 748 mmHg 78%
    05:00 +20°C° 0 mm 1 m/s 748 mmHg 77%
    06:00 +21°C° 0 mm 1 m/s 748 mmHg 76%
    07:00 +22°C° 0 mm 1 m/s 749 mmHg 72%
    08:00 +23°C° 0 mm 2 m/s 749 mmHg 69%
    09:00 +25°C° 0 mm 2 m/s 749 mmHg 65%
    10:00 +26°C° 0.2 mm 3 m/s 749 mmHg 61%
    11:00 +27°C° 0.2 mm 3 m/s 749 mmHg 56%
    12:00 +28°C° 0.2 mm 4 m/s 749 mmHg 52%
    13:00 +27°C° 0.2 mm 4 m/s 749 mmHg 53%
    14:00 +27°C° 0.2 mm 4 m/s 749 mmHg 55%
    15:00 +27°C° 0.2 mm 4 m/s 749 mmHg 57%
    16:00 +26°C° 0 mm 4 m/s 749 mmHg 60%
    17:00 +26°C° 0 mm 3 m/s 749 mmHg 63%
    18:00 +26°C° 0 mm 2 m/s 749 mmHg 67%
    19:00 +24°C° 0 mm 2 m/s 750 mmHg 70%
    20:00 +21°C° 0 mm 2 m/s 750 mmHg 73%
    21:00 +20°C° 0 mm 1 m/s 750 mmHg 75%
    22:00 +19°C° 0 mm 1 m/s 750 mmHg 77%
    23:00 +19°C° 0 mm 1 m/s 750 mmHg 79%

    Poimâine, 20 Iulie, Sâmbătă

    Timp Temperatura Precipitaţii Vânt Presiune Umiditate
    00:00 +18°C° 0 mm 1 m/s 751 mmHg 80%
    01:00 +18°C° 0 mm 1 m/s 751 mmHg 81%
    02:00 +16°C° 0 mm 1 m/s 751 mmHg 83%
    03:00 +16°C° 0 mm 1 m/s 751 mmHg 84%
    04:00 +17°C° 0 mm 2 m/s 751 mmHg 83%
    05:00 +17°C° 0 mm 2 m/s 751 mmHg 82%
    06:00 +18°C° 0 mm 2 m/s 751 mmHg 81%
    07:00 +20°C° 0 mm 3 m/s 752 mmHg 77%
    08:00 +21°C° 0 mm 3 m/s 752 mmHg 74%
    09:00 +23°C° 0 mm 4 m/s 752 mmHg 70%
    10:00 +25°C° 0 mm 4 m/s 752 mmHg 66%
    11:00 +25°C° 0 mm 5 m/s 752 mmHg 62%
    12:00 +26°C° 0 mm 5 m/s 752 mmHg 58%
    13:00 +26°C° 0 mm 5 m/s 752 mmHg 57%
    14:00 +26°C° 0 mm 5 m/s 752 mmHg 56%
    15:00 +26°C° 0 mm 6 m/s 752 mmHg 54%
    16:00 +26°C° 0 mm 5 m/s 752 mmHg 59%
    17:00 +25°C° 0 mm 4 m/s 752 mmHg 63%
    18:00 +25°C° 0 mm 3 m/s 752 mmHg 67%
    19:00 +22°C° 0 mm 3 m/s 753 mmHg 70%
    20:00 +20°C° 0 mm 3 m/s 753 mmHg 74%
    21:00 +19°C° 0 mm 3 m/s 753 mmHg 77%
    22:00 +18°C° 0 mm 3 m/s 753 mmHg 79%
    23:00 +17°C° 0 mm 3 m/s 753 mmHg 81%

    21 Iulie, Duminică

    Timp Temperatura Precipitaţii Vânt Presiune Umiditate
    00:00 +17°C° 0 mm 3 m/s 753 mmHg 83%
    01:00 +16°C° 0 mm 3 m/s 753 mmHg 86%
    02:00 +16°C° 0 mm 3 m/s 753 mmHg 88%
    03:00 +16°C° 0 mm 3 m/s 753 mmHg 90%
    04:00 +16°C° 0 mm 3 m/s 753 mmHg 88%
    05:00 +17°C° 0 mm 3 m/s 753 mmHg 85%
    06:00 +18°C° 0 mm 3 m/s 753 mmHg 83%
    07:00 +19°C° 0 mm 4 m/s 753 mmHg 76%
    08:00 +21°C° 0 mm 4 m/s 753 mmHg 70%
    09:00 +22°C° 0 mm 5 m/s 753 mmHg 63%
    10:00 +23°C° 0 mm 5 m/s 753 mmHg 60%
    11:00 +25°C° 0 mm 5 m/s 753 mmHg 56%
    12:00 +26°C° 0 mm 6 m/s 753 mmHg 53%
    13:00 +26°C° 0 mm 6 m/s 753 mmHg 53%
    14:00 +26°C° 0 mm 6 m/s 752 mmHg 53%
    15:00 +27°C° 0 mm 6 m/s 752 mmHg 53%
    16:00 +26°C° 0 mm 5 m/s 752 mmHg 57%
    17:00 +26°C° 0 mm 4 m/s 752 mmHg 62%
    18:00 +25°C° 0 mm 3 m/s 752 mmHg 66%
    19:00 +22°C° 0 mm 3 m/s 752 mmHg 71%
    20:00 +21°C° 0 mm 3 m/s 752 mmHg 75%
    21:00 +19°C° 0 mm 3 m/s 752 mmHg 80%
    22:00 +18°C° 0 mm 3 m/s 752 mmHg 83%
    23:00 +17°C° 0 mm 3 m/s 752 mmHg 86%

    22 Iulie, Luni

    Timp Temperatura Precipitaţii Vânt Presiune Umiditate
    00:00 +17°C° 0 mm 3 m/s 752 mmHg 90%
    01:00 +16°C° 0 mm 2 m/s 752 mmHg 91%
    02:00 +16°C° 0 mm 2 m/s 752 mmHg 93%
    03:00 +16°C° 0 mm 2 m/s 752 mmHg 94%
    04:00 +16°C° 0 mm 3 m/s 752 mmHg 93%
    05:00 +17°C° 0 mm 3 m/s 752 mmHg 91%
    06:00 +18°C° 0 mm 3 m/s 752 mmHg 89%
    07:00 +19°C° 0 mm 3 m/s 751 mmHg 83%
    08:00 +21°C° 0 mm 4 m/s 751 mmHg 77%
    09:00 +22°C° 0 mm 4 m/s 751 mmHg 71%
    10:00 +23°C° 0.1 mm 4 m/s 751 mmHg 67%
    11:00 +25°C° 0.1 mm 5 m/s 751 mmHg 64%
    12:00 +26°C° 0.1 mm 5 m/s 751 mmHg 60%
    13:00 +26°C° 0.2 mm 5 m/s 751 mmHg 60%
    14:00 +26°C° 0.2 mm 5 m/s 750 mmHg 60%
    15:00 +25°C° 0.2 mm 5 m/s 750 mmHg 61%
    16:00 +25°C° 0 mm 5 m/s 750 mmHg 63%
    17:00 +25°C° 0 mm 4 m/s 750 mmHg 65%
    18:00 +25°C° 0 mm 3 m/s 750 mmHg 67%
    19:00 +22°C° 0 mm 3 m/s 750 mmHg 72%
    20:00 +20°C° 0 mm 2 m/s 750 mmHg 78%
    21:00 +18°C° 0 mm 2 m/s 751 mmHg 84%
    22:00 +18°C° 0 mm 2 m/s 750 mmHg 86%
    23:00 +18°C° 0 mm 1 m/s 750 mmHg 87%

    23 Iulie, Marţi

    Timp Temperatura Precipitaţii Vânt Presiune Umiditate
    00:00 +18°C° 0 mm 1 m/s 750 mmHg 89%
    01:00 +16°C° 0 mm 1 m/s 750 mmHg 90%
    02:00 +16°C° 0 mm 1 m/s 750 mmHg 90%
    03:00 +16°C° 0 mm 1 m/s 750 mmHg 91%
    04:00 +16°C° 0 mm 1 m/s 750 mmHg 88%
    05:00 +18°C° 0 mm 1 m/s 750 mmHg 86%
    06:00 +19°C° 0 mm 1 m/s 750 mmHg 83%
    07:00 +20°C° 0 mm 1 m/s 750 mmHg 76%
    08:00 +22°C° 0 mm 1 m/s 750 mmHg 70%
    09:00 +22°C° 0 mm 0 m/s 750 mmHg 63%
    10:00 +23°C° 0 mm 0 m/s 750 mmHg 59%
    11:00 +24°C° 0 mm 0 m/s 750 mmHg 54%
    12:00 +25°C° 0 mm 0 m/s 750 mmHg 50%
    13:00 +25°C° 0 mm 0 m/s 750 mmHg 49%
    14:00 +25°C° 0 mm 0 m/s 750 mmHg 49%
    15:00 +27°C° 0 mm 1 m/s 750 mmHg 48%
    16:00 +26°C° 0 mm 1 m/s 750 mmHg 51%
    17:00 +26°C° 0 mm 1 m/s 750 mmHg 55%
    18:00 +25°C° 0 mm 1 m/s 749 mmHg 59%
    19:00 +24°C° 0 mm 1 m/s 749 mmHg 59%
    20:00 +23°C° 0 mm 1 m/s 749 mmHg 59%
    21:00 +23°C° 0 mm 2 m/s 750 mmHg 59%
    22:00 +21°C° 0.1 mm 2 m/s 750 mmHg 63%
    23:00 +21°C° 0.1 mm 1 m/s 750 mmHg 67%
    Arată mai mult